Regional Weather Roundup
Issued by NWS

Home | Current Version | Previous Version | Graphics & Text | Print | Product List | Glossary On
Versions: 1 2 3 4 5 6 7 8 9 10 11 12 13 14 15 16 17 18 19 20 21 22 23 24 25 26 27 28 29 30 31 32 33 34 35 36 37 38 39 40 41 42 43 44 45 46 47 48 49 50
295
ASUS43 KFSD 291310
RWRSD

WEATHER ROUNDUP FOR SOUTH DAKOTA
NATIONAL WEATHER SERVICE SIOUX FALLS SD
800 AM CDT FRI APR 29 2016

NOTE: "FAIR" INDICATES FEW OR NO CLOUDS BELOW 12,000 FEET WITH NO
SIGNIFICANT WEATHER AND/OR OBSTRUCTIONS TO VISIBILITY.


SDZ001>005-009-010-012>017-291400-
NORTHWEST AND NORTH CENTRAL SOUTH DAKOTA

CITY           SKY/WX    TMP DP  RH WIND       PRES   REMARKS
BUFFALO          N/A     37  35  92 E3        30.05R
FAITH            N/A     36  32  85 NE6       30.14R
MOBRIDGE       CLOUDY    44  41  89 S3        30.14R
$$

SDZ012>016-024>037-041>051-057-063-072>074-291400-
SOUTHWEST AND SOUTH CENTRAL SOUTH DAKOTA

CITY           SKY/WX    TMP DP  RH WIND       PRES   REMARKS
RAPID CTY ARPT CLOUDY    36  33  89 CALM      30.12R
PIERRE         CLOUDY    39  36  89 E3        30.15S
CUSTER         CLOUDY    31  28  89 CALM      30.05S
ELLSWORTH AFB  CLOUDY    36  36 100 SW1       30.11
PHILIP         CLOUDY    40  36  86 N6        30.13F
PINE RIDGE     CLOUDY    38  33  82 CALM      30.09F
WINNER         CLOUDY    40  36  86 E7        30.13R
$$

SDZ004>011-016>023-039-040-291400-
NORTHEAST SOUTH DAKOTA

CITY           SKY/WX    TMP DP  RH WIND       PRES   REMARKS
ABERDEEN       SUNNY     39  36  89 S7        30.21R
WATERTOWN      CLOUDY    39  36  89 N5        30.17S
BROOKINGS      CLOUDY    38  37  97 NE3       30.16R
SISSETON         N/A     42  37  82 W5        30.19R
$$

SDZ017-020-022-023-036>040-048>070-291400-
SOUTHEAST SOUTH DAKOTA

CITY           SKY/WX    TMP DP  RH WIND       PRES   REMARKS
SIOUX FALLS    CLOUDY    40  36  86 NE8       30.15S
HURON          CLOUDY    40  37  89 NE7       30.16S
CHAMBERLAIN    CLOUDY    40  38  94 E5        30.15S
MITCHELL       CLOUDY    40  38  93 N6        30.16F
YANKTON        CLOUDY    41  37  87 NE6       30.14R
$$

ABBREVIATIONS USED IN REMARKS
   TC - TEMPERATURE IN CELSIUS
  WCI - WIND CHILL INDEX
   HX - HEAT INDEX
  VSB - VISIBILITY





USA.gov is the U.S. government's official web portal to all federal, state and local government web resources and services.